Regional Weather Roundup
Issued by NWS Cleveland, OH

Home | Current Version | Previous Version | Graphics & Text | Print | Product List | Glossary On
Versions: 1 2 3 4 5 6 7 8 9 10 11 12 13 14 15 16 17 18 19 20 21 22 23 24 25 26 27 28 29 30 31 32 33 34 35 36 37 38 39 40 41 42 43 44 45 46 47 48 49 50
000
ASUS41 KCLE 032210
RWRCLE
OHIO REGIONAL WEATHER ROUNDUP
NATIONAL WEATHER SERVICE CLEVELAND, OH
600 PM EDT MON AUG 03 2015

NOTE: "FAIR" INDICATES FEW OR NO CLOUDS BELOW 12,000 FEET WITH NO
SIGNIFICANT WEATHER AND/OR OBSTRUCTIONS TO VISIBILITY.

OHZ001>008-015>018-024>027-034-035-043-044-032300-
   NORTHWEST OHIO

CITY           SKY/WX    TMP DP  RH WIND       PRES   REMARKS
DEFIANCE       SUNNY     81  59  47 W10G18    29.81R
FINDLAY        SUNNY     83  63  50 W10       29.79F
TOLEDO EXPRESS MOSUNNY   81  57  43 W14       29.79R
TOLEDO EXEC    MOSUNNY   82  59  45 W15       29.79S
LIMA           MOSUNNY   81  60  48 W15       29.82F
$$

OHZ009>014-019>023-028>033-038-089-032300-
   NORTHEAST OHIO

CITY           SKY/WX    TMP DP  RH WIND       PRES   REMARKS
CLE-HOPKINS    MOSUNNY   81  62  52 W10       29.80F
CLE-LAKEFRONT  SUNNY     79  65  62 W6        29.78F
CUY CO. ARPT   MOSUNNY   81  59  47 NW12      29.79F
LORAIN-ELYRIA  SUNNY     80  61  52 W14       29.80S
ASHTABULA      SUNNY     78  60  53 W12G17    29.80F
AKRON-CANTON   MOSUNNY   82  63  52 W13       29.82R
WOOSTER        SUNNY     80  66  62 W8        29.82S
MANSFIELD      SUNNY     80  66  62 W9        29.83S
YOUNGSTOWN     MOSUNNY   79  62  56 NW7       29.80F
$$

OHZ042-051>053-060>062-070>072-077>081-032300-
  SOUTHWEST OHIO

CITY           SKY/WX    TMP DP  RH WIND       PRES   REMARKS
CINC-COVINGTON PTSUNNY   84  69  60 SW6       29.86S
CINC-LUNKEN    PTSUNNY   81  68  64 SW8       29.84S THUNDER
HAMILTON       TSTM      68  66  93 VRB7G33   29.95R VSB 1/2
DAYTON         CLOUDY    75  60  59 W16       29.85S
WRIGHT-PAT AFB PTSUNNY   78  68  70 SW16G24   29.83F
DAYTON GENERAL CLOUDY    73  63  70 W8        29.86F
WILMINGTON     CLOUDY    79  67  66 W9        29.87R
$$

OHZ036-037-039>041-045>050-054>059-063>069-073>076-082>088-032300-
  CENTRAL AND SOUTHEAST OHIO

CITY           SKY/WX    TMP DP  RH WIND       PRES   REMARKS
COLUMBUS       PTSUNNY   81  67  62 W13       29.82F
OSU AIRPORT    CLOUDY    80  68  66 W10       29.83F
BOLTON FIELD   NOT AVBL
RICKENBACK AFB PTSUNNY   79  69  73 SW7       29.83S
NEWARK         SUNNY     82  67  60 SW10      29.82F
MARION         MOSUNNY   82  64  54 W9        29.82F
LANCASTER      PTSUNNY   80  69  69 SW5       29.84F
ZANESVILLE     MOSUNNY   82  65  56 W10       29.83S
NEW PHILLY     MOSUNNY   82  69  64 VRB5      29.81F
$$


USA.gov is the U.S. government's official web portal to all federal, state and local government web resources and services.